Coatesville, PA

1:34 PM EST on December 08, 2019 (GMT -0500)
Chester County Carlson

Weather History for KMQS - November, 2019

Change the Weather History Date:

Friday, November 22, 2019

  Actual Average (KILG) Record (KILG)
Temperature  
Mean Temperature 41 °F -  
Max Temperature 50 °F 50 °F 75 °F (1900)
Min Temperature 32 °F 33 °F 19 °F (1984)
Degree Days  
Heating Degree Days 24    
Moisture  
Dew Point 35 °F    
Average Humidity 72    
Maximum Humidity 93    
Minimum Humidity 53    
Precipitation  
Precipitation 0.07 in - - ()
Sea Level Pressure  
Sea Level Pressure 29.90 in    
Wind  
Wind Speed 7 mph ()    
Max Wind Speed 24 mph    
Max Gust Speed 29 mph    
Visibility 9.3 miles    
Events Rain    
Averages and records for this station are not official NWS values.
T = Trace of Precipitation, MM = Missing Value Source: Averaged Metar Reports

Daily Weather History Graph

Daily Weather History Graph

Search for Another Location

Airport or City:

Astronomy

Nov. 22, 2019 Rise Set
Actual Time 6:56 AM EST 4:42 PM EST
Civil Twilight 6:26 AM EST 5:12 PM EST
Nautical Twilight 5:53 AM EST 5:45 PM EST
Astronomical Twilight 5:21 AM EST 6:17 PM EST
Moon 1:59 AM EST (11/22) 2:41 PM EST (11/22)
Length of Visible Light 10h 45m
Length of Day
9h 46m
Waning Crescent, 20% of the Moon is Illuminated
Nov 22
Waning Crescent
Nov 26
New
Dec 4
First Quarter
Dec 12
Full
Dec 18
Last Quarter

Hourly Weather History & Observations

Time (EST) Temp. Windchill Dew Point Humidity Pressure Visibility Wind Dir Wind Speed Gust Speed Precip Events Conditions
12:15 AM 46.4 °F 44.3 °F 37.4 °F 71% 29.98 in 10.0 mi SW 4.6 mph 13.8 mph N/A   Overcast
12:35 AM 46.4 °F 42.9 °F 37.4 °F 71% 29.97 in 10.0 mi Variable 6.9 mph - N/A   Overcast
12:55 AM 46.4 °F 44.3 °F 37.4 °F 71% 29.96 in 10.0 mi Variable 4.6 mph - N/A   Overcast
1:15 AM 46.4 °F 42.4 °F 37.4 °F 71% 29.95 in 10.0 mi South 8.1 mph - N/A   Overcast
1:35 AM 46.4 °F 45.2 °F 37.4 °F 71% 29.95 in 10.0 mi Variable 3.5 mph 11.5 mph N/A   Overcast
1:55 AM 46.4 °F 45.2 °F 37.4 °F 71% 29.95 in 10.0 mi Variable 3.5 mph - N/A   Overcast
2:15 AM 46.4 °F 44.3 °F 37.4 °F 71% 29.95 in 10.0 mi Variable 4.6 mph - N/A   Overcast
2:35 AM 46.4 °F 44.3 °F 37.4 °F 71% 29.93 in 10.0 mi South 4.6 mph - N/A   Overcast
2:55 AM 46.4 °F 44.3 °F 37.4 °F 71% 29.92 in 10.0 mi Variable 4.6 mph - N/A   Mostly Cloudy
3:15 AM 46.4 °F 45.2 °F 37.4 °F 71% 29.92 in 10.0 mi Variable 3.5 mph - N/A   Mostly Cloudy
3:35 AM 46.4 °F 44.3 °F 37.4 °F 71% 29.90 in 10.0 mi Variable 4.6 mph - N/A   Overcast
3:55 AM 46.4 °F - 37.4 °F 71% 29.90 in 10.0 mi Calm Calm - N/A   Overcast
4:15 AM 46.4 °F - 37.4 °F 71% 29.90 in 10.0 mi Calm Calm - N/A   Overcast
4:55 AM 46.4 °F - 37.4 °F 71% 29.88 in 10.0 mi Calm Calm - N/A   Mostly Cloudy
5:15 AM 44.6 °F - 37.4 °F 76% 29.87 in 10.0 mi Calm Calm - N/A   Clear
5:35 AM 44.6 °F 43.1 °F 37.4 °F 76% 29.87 in 10.0 mi South 3.5 mph - N/A   Clear
5:55 AM 44.6 °F 42.2 °F 37.4 °F 76% 29.86 in 10.0 mi Variable 4.6 mph - N/A   Partly Cloudy
6:15 AM 44.6 °F 43.1 °F 39.2 °F 81% 29.86 in 10.0 mi Variable 3.5 mph - N/A   Mostly Cloudy
6:35 AM 44.6 °F 43.1 °F 39.2 °F 81% 29.86 in 10.0 mi Variable 3.5 mph - N/A   Mostly Cloudy
6:55 AM 44.6 °F 42.2 °F 39.2 °F 81% 29.85 in 10.0 mi Variable 4.6 mph - N/A   Mostly Cloudy
7:15 AM 44.6 °F 42.2 °F 39.2 °F 81% 29.85 in 10.0 mi Variable 4.6 mph - N/A   Mostly Cloudy
7:35 AM 46.4 °F 45.2 °F 39.2 °F 76% 29.84 in 10.0 mi Variable 3.5 mph - N/A   Overcast
7:55 AM 46.4 °F 44.3 °F 39.2 °F 76% 29.83 in 10.0 mi Variable 4.6 mph - N/A   Scattered Clouds
8:15 AM 46.4 °F 42.9 °F 39.2 °F 76% 29.82 in 10.0 mi South 6.9 mph - N/A   Scattered Clouds
8:35 AM 48.2 °F - 39.2 °F 71% 29.82 in 10.0 mi SSW 6.9 mph 15.0 mph N/A   Mostly Cloudy
8:55 AM 48.2 °F - 39.2 °F 71% 29.82 in 10.0 mi Variable 4.6 mph - N/A   Overcast
9:15 AM 48.2 °F - 39.2 °F 71% 29.82 in 10.0 mi West 5.8 mph - N/A   Overcast
9:35 AM 48.2 °F - 39.2 °F 71% 29.83 in 10.0 mi West 5.8 mph - N/A   Overcast
9:55 AM 48.2 °F - 39.2 °F 71% 29.82 in 10.0 mi WSW 6.9 mph - N/A   Overcast
10:15 AM 50.0 °F - 39.2 °F 66% 29.82 in 10.0 mi Variable 5.8 mph - N/A   Overcast
10:55 AM 48.2 °F - 42.8 °F 82% 29.80 in 5.0 mi WSW 8.1 mph - 0.01 in Rain Light Rain
11:15 AM 46.4 °F 42.9 °F 42.8 °F 87% 29.79 in 6.0 mi Variable 6.9 mph - N/A Rain Light Rain
11:35 AM 46.4 °F 42.9 °F 44.6 °F 93% 29.78 in 5.0 mi WSW 6.9 mph - N/A Rain Light Rain
11:55 AM 46.4 °F 43.5 °F 44.6 °F 93% 29.78 in 3.0 mi Variable 5.8 mph - 0.03 in Rain Light Rain
12:15 PM 46.4 °F 43.5 °F 44.6 °F 93% 29.77 in 3.0 mi Variable 5.8 mph - N/A Rain Light Rain
12:35 PM 48.2 °F - 46.4 °F 93% 29.77 in 5.0 mi Variable 4.6 mph - N/A Rain Light Rain
12:55 PM 48.2 °F - 44.6 °F 87% 29.80 in 5.0 mi NW 24.2 mph - 0.03 in Rain Light Rain
1:15 PM 46.4 °F 39.8 °F 44.6 °F 93% 29.79 in 3.0 mi NW 16.1 mph 23.0 mph N/A Rain Light Rain
1:35 PM 46.4 °F 39.8 °F 44.6 °F 93% 29.78 in 10.0 mi WNW 16.1 mph - N/A   Overcast
1:55 PM 48.2 °F - 44.6 °F 87% 29.78 in 10.0 mi WNW 15.0 mph - N/A   Scattered Clouds
2:15 PM 48.2 °F - 42.8 °F 82% 29.79 in 10.0 mi WNW 18.4 mph 24.2 mph N/A   Scattered Clouds
2:35 PM 48.2 °F - 41.0 °F 76% 29.79 in 10.0 mi WNW 13.8 mph 24.2 mph N/A   Mostly Cloudy
2:55 PM 46.4 °F 40.1 °F 39.2 °F 76% 29.79 in - NW 15.0 mph 21.9 mph N/A   Partly Cloudy
3:15 PM 46.4 °F 38.5 °F 37.4 °F 71% 29.80 in 10.0 mi NW 21.9 mph 28.8 mph N/A   Clear
3:35 PM 46.4 °F 38.7 °F 33.8 °F 62% 29.83 in 10.0 mi NW 20.7 mph 28.8 mph N/A   Clear
3:55 PM 44.6 °F 36.6 °F 33.8 °F 66% 29.85 in 10.0 mi WNW 19.6 mph 25.3 mph N/A   Clear
4:15 PM 44.6 °F 37.2 °F 33.8 °F 66% 29.85 in 10.0 mi NW 17.3 mph 24.2 mph N/A   Clear
4:35 PM 44.6 °F 37.4 °F 32.0 °F 61% 29.87 in 10.0 mi NW 16.1 mph - N/A   Clear
4:55 PM 44.6 °F 37.4 °F 30.2 °F 57% 29.88 in 10.0 mi NW 16.1 mph 21.9 mph N/A   Clear
5:15 PM 42.8 °F 35.8 °F 30.2 °F 61% 29.90 in 10.0 mi NW 13.8 mph 23.0 mph N/A   Clear
5:35 PM 42.8 °F 37.0 °F 30.2 °F 61% 29.91 in 10.0 mi NW 10.4 mph 17.3 mph N/A   Clear
5:55 PM 42.8 °F 36.6 °F 32.0 °F 66% 29.92 in 10.0 mi NW 11.5 mph - N/A   Clear
6:15 PM 41.0 °F 33.9 °F 30.2 °F 65% 29.94 in 10.0 mi NW 12.7 mph - N/A   Clear
6:35 PM 41.0 °F 32.5 °F 26.6 °F 57% 29.95 in 10.0 mi NW 17.3 mph - N/A   Clear
6:55 PM 41.0 °F 31.6 °F 24.8 °F 53% 29.97 in 10.0 mi NW 20.7 mph 28.8 mph N/A   Clear
7:15 PM 41.0 °F 33.1 °F 24.8 °F 53% 29.97 in 10.0 mi NW 15.0 mph 25.3 mph N/A   Clear
7:35 PM 39.2 °F 32.5 °F 26.6 °F 61% 29.98 in 10.0 mi NNW 10.4 mph 17.3 mph N/A   Clear
7:55 PM 39.2 °F 37.0 °F 24.8 °F 56% 30.00 in 10.0 mi Variable 3.5 mph - N/A   Clear
8:15 PM 37.4 °F 31.4 °F 24.8 °F 60% 30.00 in 10.0 mi NNW 8.1 mph 13.8 mph N/A   Clear
8:35 PM 37.4 °F 33.8 °F 24.8 °F 60% 30.01 in 10.0 mi WSW 4.6 mph - N/A   Clear
8:55 PM 35.6 °F 28.6 °F 24.8 °F 65% 30.02 in 10.0 mi NW 9.2 mph - N/A   Clear
9:15 PM 37.4 °F 29.8 °F 24.8 °F 60% 30.02 in - NW 11.5 mph - N/A   Clear
9:35 PM 35.6 °F 28.6 °F 24.8 °F 65% 30.02 in 10.0 mi NW 9.2 mph - N/A   Clear
9:55 PM 35.6 °F 28.0 °F 24.8 °F 65% 30.03 in 10.0 mi NW 10.4 mph - N/A   Clear
10:15 PM 33.8 °F 25.8 °F 24.8 °F 70% 30.03 in 10.0 mi WNW 10.4 mph - N/A   Clear
10:35 PM 33.8 °F 26.4 °F 24.8 °F 70% 30.04 in 10.0 mi WNW 9.2 mph - N/A   Clear
10:55 PM 33.8 °F 26.4 °F 24.8 °F 70% 30.05 in 10.0 mi WNW 9.2 mph - N/A   Clear
11:15 PM 32.0 °F 24.8 °F 24.8 °F 75% 30.05 in 10.0 mi WNW 8.1 mph - N/A   Clear
11:35 PM 33.8 °F 27.0 °F 24.8 °F 70% 30.05 in 10.0 mi NW 8.1 mph - N/A   Clear
11:55 PM 33.8 °F 25.8 °F 24.8 °F 70% 30.04 in 10.0 mi NW 10.4 mph - N/A   Clear